Location: Gniazdowice
(50.2124°N, 20.2673°E)
Time: 15:58:46
(UTC+00:00)

Cosmos 2360 Rocket - Pass Details

Date: 23 May 2024
Orbit: 832 x 846 km, 71.0° (Epoch: 12 June)

Event Time Altitude Azimuth Distance (km) Brightness Sun altitude
Rises 01:58:24 0° 324° (NW) 3,417 5.5 -6.2°
Reaches altitude 10° 02:01:06 10° 314° (NW) 2,478 4.6 -5.9°
Maximum altitude 02:05:59 31° 255° (WSW) 1,461 3.0 -5.3°
Drops below altitude 10° 02:10:51 10° 195° (SSW) 2,461 4.1 -4.7°
Sets 02:13:32 0° 186° (S) 3,391 4.9 -4.4°
